VIV4342 MMMY-MMPR

Flight info

Callsign VIV4342
Flight time N/A
Altitude 34000
Route URTOB1A URTOB DCT OTEKA UT1 KEDMA KEDMA1B
Aircraft A320/M-SDE3FGHIRWY/LB1

Departure

Time 2026-05-06 18:41
Airport Monterrey International Airport (MMMY)

Arrival

Time N/A
Airport Puerto Vallarta International Airport (MMPR)
Time Latitude Longitude Altitude Speed Heading
2026-05-06 18:05 25.78078 -100.11890 1292 ft 0 kts 211°
2026-05-06 18:22 25.78081 -100.11888 1292 ft 2 kts 211°
2026-05-06 18:23 25.78097 -100.11877 1292 ft 3 kts 211°
2026-05-06 18:23 25.78113 -100.11866 1292 ft 3 kts 213°
2026-05-06 18:23 25.78125 -100.11854 1292 ft 3 kts 271°
2026-05-06 18:23 25.78122 -100.11840 1292 ft 1 kts 302°
2026-05-06 18:24 25.78113 -100.11825 1292 ft 3 kts 302°
2026-05-06 18:24 25.78103 -100.11806 1292 ft 3 kts 302°
2026-05-06 18:24 25.78092 -100.11787 1292 ft 3 kts 302°
2026-05-06 18:24 25.78091 -100.11784 1292 ft 0 kts 302°
2026-05-06 18:30 25.78091 -100.11785 1292 ft 0 kts 302°
2026-05-06 18:34 25.78101 -100.11803 1292 ft 9 kts 302°
2026-05-06 18:34 25.78156 -100.11874 1292 ft 12 kts 359°
2026-05-06 18:34 25.78236 -100.11829 1292 ft 14 kts 30°
2026-05-06 18:34 25.78311 -100.11779 1292 ft 12 kts 30°
2026-05-06 18:35 25.78316 -100.11776 1292 ft 0 kts 30°
2026-05-06 18:36 25.78316 -100.11775 1292 ft 0 kts 30°
2026-05-06 18:36 25.78326 -100.11769 1292 ft 3 kts 30°
2026-05-06 18:36 25.78350 -100.11754 1292 ft 5 kts 30°
2026-05-06 18:37 25.78388 -100.11728 1292 ft 7 kts 32°
2026-05-06 18:37 25.78411 -100.11710 1292 ft 2 kts 63°
2026-05-06 18:37 25.78408 -100.11703 1292 ft 0 kts 120°
2026-05-06 18:38 25.78407 -100.11701 1292 ft 0 kts 125°
2026-05-06 18:39 25.78406 -100.11700 1292 ft 0 kts 125°
2026-05-06 18:40 25.78368 -100.11635 1292 ft 35 kts 121°
2026-05-06 18:40 25.78093 -100.11131 1293 ft 115 kts 123°
2026-05-06 18:40 25.77555 -100.10158 1309 ft 176 kts 121°
2026-05-06 18:41 25.76879 -100.08957 1927 ft 185 kts 122°
2026-05-06 18:41 25.76189 -100.07730 2789 ft 190 kts 121°
2026-05-06 18:41 25.75494 -100.06500 3531 ft 188 kts 123°
2026-05-06 18:41 25.74783 -100.05276 3984 ft 196 kts 121°
2026-05-06 18:42 25.74066 -100.03903 4385 ft 210 kts 120°
2026-05-06 18:42 25.73313 -100.02454 4731 ft 229 kts 120°
2026-05-06 18:42 25.72474 -100.00876 5229 ft 244 kts 120°
2026-05-06 18:42 25.71563 -99.99220 5768 ft 258 kts 122°
2026-05-06 18:43 25.70351 -99.97692 6288 ft 270 kts 148°
2026-05-06 18:43 25.68589 -99.96965 6837 ft 273 kts 180°
2026-05-06 18:43 25.66771 -99.97292 7529 ft 268 kts 207°
2026-05-06 18:43 25.65291 -99.98502 8251 ft 264 kts 233°
2026-05-06 18:44 25.64470 -100.00301 8964 ft 264 kts 258°
2026-05-06 18:44 25.64267 -100.02331 9697 ft 266 kts 267°
2026-05-06 18:44 25.64196 -100.04394 10376 ft 271 kts 268°
2026-05-06 18:44 25.64105 -100.06547 10791 ft 286 kts 267°
2026-05-06 18:45 25.63959 -100.08799 11007 ft 306 kts 265°
2026-05-06 18:45 25.63764 -100.11219 11204 ft 325 kts 265°
2026-05-06 18:45 25.63540 -100.13778 11411 ft 341 kts 264°
2026-05-06 18:45 25.63232 -100.15519 11557 ft 352 kts 255°
2026-05-06 18:46 25.61610 -100.18783 11829 ft 375 kts 231°
2026-05-06 18:46 25.59772 -100.20834 12141 ft 385 kts 225°
2026-05-06 18:46 25.58429 -100.22202 12453 ft 388 kts 224°
2026-05-06 18:46 25.55786 -100.24880 13094 ft 391 kts 225°
2026-05-06 18:47 25.53814 -100.26975 13574 ft 394 kts 227°
2026-05-06 18:47 25.51873 -100.29137 14045 ft 396 kts 228°
2026-05-06 18:47 25.49949 -100.31324 14502 ft 399 kts 228°
2026-05-06 18:47 25.47998 -100.33527 14950 ft 401 kts 227°
2026-05-06 18:48 25.46690 -100.34983 15240 ft 403 kts 227°
2026-05-06 18:48 25.44694 -100.37176 15670 ft 406 kts 227°
2026-05-06 18:48 25.42677 -100.39376 16088 ft 408 kts 227°
2026-05-06 18:48 25.40650 -100.41591 16499 ft 411 kts 227°
2026-05-06 18:49 25.38666 -100.43869 16894 ft 412 kts 231°
2026-05-06 18:49 25.37019 -100.46445 17285 ft 412 kts 242°
2026-05-06 18:49 25.35683 -100.49259 17674 ft 413 kts 245°
2026-05-06 18:49 25.34440 -100.52122 18050 ft 415 kts 246°
2026-05-06 18:50 25.33200 -100.55027 18423 ft 418 kts 246°
2026-05-06 18:50 25.31928 -100.57926 18789 ft 420 kts 245°
2026-05-06 18:50 25.30610 -100.60819 19152 ft 422 kts 244°
2026-05-06 18:50 25.29267 -100.63703 19504 ft 425 kts 244°
2026-05-06 18:51 25.27844 -100.66580 19846 ft 427 kts 240°
2026-05-06 18:51 25.26276 -100.69388 20187 ft 430 kts 239°
2026-05-06 18:51 25.24648 -100.72167 20514 ft 432 kts 238°
2026-05-06 18:51 25.22986 -100.74948 20832 ft 434 kts 238°
2026-05-06 18:52 25.21325 -100.77748 21146 ft 436 kts 239°
2026-05-06 18:52 25.19681 -100.80569 21450 ft 438 kts 239°
2026-05-06 18:52 25.18041 -100.83420 21762 ft 440 kts 239°
2026-05-06 18:52 25.16418 -100.86250 22059 ft 442 kts 239°
2026-05-06 18:53 25.14760 -100.89121 22351 ft 445 kts 239°
2026-05-06 18:53 25.12874 -100.91840 22628 ft 449 kts 230°
2026-05-06 18:53 25.10697 -100.94329 22909 ft 452 kts 227°
2026-05-06 18:53 25.08439 -100.96752 23174 ft 454 kts 226°
2026-05-06 18:54 25.06158 -100.99161 23437 ft 456 kts 226°
2026-05-06 18:54 25.03880 -101.01609 23683 ft 457 kts 227°
2026-05-06 18:54 25.01627 -101.04095 23878 ft 458 kts 227°
2026-05-06 18:54 24.99388 -101.06600 24069 ft 460 kts 227°
2026-05-06 18:55 24.97136 -101.09113 24253 ft 461 kts 227°
2026-05-06 18:55 24.94868 -101.11617 24428 ft 462 kts 227°
2026-05-06 18:55 24.92575 -101.14128 24595 ft 464 kts 227°
2026-05-06 18:55 24.90280 -101.16634 24784 ft 465 kts 227°
2026-05-06 18:56 24.87992 -101.19137 25075 ft 464 kts 227°
2026-05-06 18:56 24.85706 -101.21644 25361 ft 463 kts 227°
2026-05-06 18:56 24.83443 -101.24129 25648 ft 463 kts 227°
2026-05-06 18:56 24.81164 -101.26631 25934 ft 462 kts 227°
2026-05-06 18:57 24.78890 -101.29123 26217 ft 462 kts 227°
2026-05-06 18:57 24.76611 -101.31616 26497 ft 461 kts 227°
2026-05-06 18:57 24.74338 -101.34100 26780 ft 461 kts 227°
2026-05-06 18:57 24.72065 -101.36588 27066 ft 460 kts 227°
2026-05-06 18:58 24.69798 -101.39072 27355 ft 459 kts 227°
2026-05-06 18:58 24.67531 -101.41549 27651 ft 459 kts 227°
2026-05-06 18:58 24.65294 -101.43990 27943 ft 458 kts 227°
2026-05-06 18:58 24.63034 -101.46453 28239 ft 458 kts 227°
2026-05-06 18:59 24.60780 -101.48911 28530 ft 457 kts 227°
2026-05-06 18:59 24.58520 -101.51374 28819 ft 456 kts 227°
2026-05-06 18:59 24.56271 -101.53824 29116 ft 456 kts 227°
2026-05-06 18:59 24.54020 -101.56276 29414 ft 455 kts 227°
2026-05-06 19:00 24.51770 -101.58727 29707 ft 455 kts 227°
2026-05-06 19:00 24.49518 -101.61175 29992 ft 454 kts 227°
2026-05-06 19:00 24.47277 -101.63610 30283 ft 454 kts 227°
2026-05-06 19:00 24.45031 -101.66053 30576 ft 453 kts 227°
2026-05-06 19:01 24.42794 -101.68483 30863 ft 452 kts 227°
2026-05-06 19:01 24.40556 -101.70910 31137 ft 452 kts 227°
2026-05-06 19:01 24.38317 -101.73336 31404 ft 451 kts 227°
2026-05-06 19:01 24.36081 -101.75760 31670 ft 451 kts 227°
2026-05-06 19:02 24.33879 -101.78149 31938 ft 450 kts 227°
2026-05-06 19:02 24.31646 -101.80570 32221 ft 450 kts 227°
2026-05-06 19:02 24.29425 -101.82973 32499 ft 449 kts 227°
2026-05-06 19:02 24.27198 -101.85380 32768 ft 449 kts 227°
2026-05-06 19:03 24.24977 -101.87783 33038 ft 448 kts 227°
2026-05-06 19:03 24.22763 -101.90180 33306 ft 447 kts 227°
2026-05-06 19:03 24.20548 -101.92575 33565 ft 447 kts 227°
2026-05-06 19:03 24.18336 -101.94963 33815 ft 446 kts 227°
2026-05-06 19:04 24.16127 -101.97347 34012 ft 446 kts 227°
2026-05-06 19:04 24.11710 -102.02108 34010 ft 445 kts 227°
2026-05-06 19:05 24.07284 -102.06873 34008 ft 445 kts 227°
2026-05-06 19:05 24.02867 -102.11629 34007 ft 445 kts 227°
2026-05-06 19:06 23.98476 -102.16350 34007 ft 445 kts 226°
2026-05-06 19:06 23.94055 -102.21098 34006 ft 445 kts 227°
2026-05-06 19:07 23.89628 -102.25850 34002 ft 445 kts 226°
2026-05-06 19:07 23.85203 -102.30590 33995 ft 445 kts 226°
2026-05-06 19:08 23.80773 -102.35334 33988 ft 445 kts 226°
2026-05-06 19:08 23.76347 -102.40068 33981 ft 445 kts 226°
2026-05-06 19:09 23.71948 -102.44769 33974 ft 446 kts 226°
2026-05-06 19:09 23.67508 -102.49510 33968 ft 446 kts 226°
2026-05-06 19:10 23.63079 -102.54232 33962 ft 446 kts 226°
2026-05-06 19:10 23.58647 -102.58958 33960 ft 446 kts 226°
2026-05-06 19:11 23.54209 -102.63683 33959 ft 446 kts 226°
2026-05-06 19:11 23.49766 -102.68405 33958 ft 446 kts 226°
2026-05-06 19:12 23.45326 -102.73120 33957 ft 446 kts 226°
2026-05-06 19:12 23.40912 -102.77804 33956 ft 446 kts 226°
2026-05-06 19:13 23.36471 -102.82513 33957 ft 446 kts 226°
2026-05-06 19:13 23.32030 -102.87219 33956 ft 446 kts 226°
2026-05-06 19:14 23.27578 -102.91929 33957 ft 446 kts 226°
2026-05-06 19:14 23.23129 -102.96626 33957 ft 446 kts 226°
2026-05-06 19:15 23.18706 -103.01296 33958 ft 446 kts 226°
2026-05-06 19:15 23.14256 -103.05994 33958 ft 446 kts 226°
2026-05-06 19:16 23.09810 -103.10679 33959 ft 446 kts 226°
2026-05-06 19:16 23.05351 -103.15371 33960 ft 446 kts 226°
2026-05-06 19:17 23.00899 -103.20061 33961 ft 446 kts 226°
2026-05-06 19:17 22.96439 -103.24744 33960 ft 446 kts 226°
2026-05-06 19:18 22.91982 -103.29422 33956 ft 446 kts 226°
2026-05-06 19:18 22.87550 -103.34074 33952 ft 446 kts 226°
2026-05-06 19:19 22.83089 -103.38752 33963 ft 447 kts 226°
2026-05-06 19:19 22.78587 -103.43466 33992 ft 451 kts 226°
2026-05-06 19:20 22.74063 -103.48198 34000 ft 452 kts 226°
2026-05-06 19:20 22.69542 -103.52915 34004 ft 452 kts 226°
2026-05-06 19:21 22.65020 -103.57628 34006 ft 452 kts 226°
2026-05-06 19:21 22.60498 -103.62348 34013 ft 451 kts 226°
2026-05-06 19:22 22.55972 -103.67068 34020 ft 451 kts 226°
2026-05-06 19:22 22.51447 -103.71775 34027 ft 451 kts 226°
2026-05-06 19:22 22.49188 -103.74124 33856 ft 448 kts 226°
2026-05-06 19:23 22.46957 -103.76441 33380 ft 443 kts 226°
2026-05-06 19:23 22.44729 -103.78755 32578 ft 445 kts 226°
2026-05-06 19:23 22.42491 -103.81080 31700 ft 448 kts 226°
2026-05-06 19:23 22.40237 -103.83420 30865 ft 450 kts 226°
2026-05-06 19:24 22.37977 -103.85764 30001 ft 452 kts 226°
2026-05-06 19:24 22.35700 -103.88127 29101 ft 453 kts 226°
2026-05-06 19:24 22.33418 -103.90494 28172 ft 455 kts 226°
2026-05-06 19:24 22.31160 -103.92833 27240 ft 457 kts 226°
2026-05-06 19:25 22.28873 -103.95203 26516 ft 456 kts 226°
2026-05-06 19:25 22.26581 -103.97577 26147 ft 458 kts 226°
2026-05-06 19:25 22.24274 -103.99966 26032 ft 460 kts 226°
2026-05-06 19:25 22.21954 -104.02364 26018 ft 462 kts 226°
2026-05-06 19:26 22.19632 -104.04764 26012 ft 462 kts 226°
2026-05-06 19:26 22.17310 -104.07163 26009 ft 462 kts 226°
2026-05-06 19:26 22.14993 -104.09557 26007 ft 462 kts 226°
2026-05-06 19:26 22.12667 -104.11958 26006 ft 462 kts 226°
2026-05-06 19:27 22.10338 -104.14358 26005 ft 462 kts 226°
2026-05-06 19:27 22.08022 -104.16745 25977 ft 462 kts 226°
2026-05-06 19:27 22.05691 -104.19149 25756 ft 462 kts 226°
2026-05-06 19:27 22.03367 -104.21545 25508 ft 462 kts 226°
2026-05-06 19:28 22.01051 -104.23931 25086 ft 457 kts 226°
2026-05-06 19:28 21.98807 -104.26238 24265 ft 448 kts 226°
2026-05-06 19:28 21.96536 -104.28574 23221 ft 446 kts 226°
2026-05-06 19:28 21.94310 -104.30861 22520 ft 448 kts 226°
2026-05-06 19:29 21.92057 -104.33175 22203 ft 448 kts 226°
2026-05-06 19:29 21.89814 -104.35484 21957 ft 446 kts 226°
2026-05-06 19:29 21.87569 -104.37788 21708 ft 444 kts 226°
2026-05-06 19:29 21.85335 -104.40080 21460 ft 443 kts 226°
2026-05-06 19:30 21.83110 -104.42361 21211 ft 441 kts 226°
2026-05-06 19:30 21.80891 -104.44635 20962 ft 439 kts 226°
2026-05-06 19:30 21.78703 -104.46878 20716 ft 438 kts 226°
2026-05-06 19:30 21.76480 -104.49156 20465 ft 436 kts 226°
2026-05-06 19:31 21.74289 -104.51400 20217 ft 434 kts 226°
2026-05-06 19:31 21.72102 -104.53640 19968 ft 433 kts 226°
2026-05-06 19:31 21.67764 -104.58080 19471 ft 430 kts 226°
2026-05-06 19:32 21.65601 -104.60291 19222 ft 428 kts 226°
2026-05-06 19:32 21.63439 -104.62498 18972 ft 427 kts 226°
2026-05-06 19:32 21.61293 -104.64689 18724 ft 425 kts 226°
2026-05-06 19:32 21.59160 -104.66868 18476 ft 423 kts 226°
2026-05-06 19:33 21.57023 -104.69048 18227 ft 422 kts 226°
2026-05-06 19:33 21.54898 -104.71214 17978 ft 420 kts 226°